Regional Weather Roundup
Issued by NWS Northern Indiana

Home | Current Version | Previous Version | Text Only | Print | Product List | Glossary On
Versions: 1 2 3 4 5 6 7 8 9 10 11 12 13 14 15 16 17 18 19 20 21 22 23 24 25 26 27 28 29 30 31 32 33 34 35 36 37 38 39 40 41 42 43 44 45 46 47 48 49 50
000
ASUS43 KIWX 260910
RWRIWX

KIWX WEATHER ROUNDUP
NATIONAL WEATHER SERVICE NORTHERN INDIANA
500 AM EDT SUN APR 26 2015

NOTE: "FAIR" INDICATES FEW OR NO CLOUDS BELOW 12,000 FEET WITH NO
SIGNIFICANT WEATHER AND/OR OBSTRUCTIONS TO VISIBILITY.

* THESE STATIONS ARE NOT UNDER NWS QUALITY CONTROL. THEY ALSO MAY NOT
  REPORT WEATHER SUCH AS PRECIPITATION OR FOG.

INZ001>027-261000-
NORTHERN INDIANA

CITY           SKY/WX    TMP DP  RH WIND       PRES   REMARKS
GARY*          CLEAR     43  31  64 NE10      29.90R
VALPARAISO     CLEAR     36  31  82 N7        29.88R
MICHIGAN CITY* CLEAR     32  32 100 NE3       29.89R
LAPORTE*       CLEAR     38  32  77 NE7       29.88R
KNOX*          CLEAR     34  25  69 N6        29.87R WCI  29
SOUTH BEND     CLEAR     38  28  67 NE8       29.88R
GOSHEN         CLEAR     36  28  73 N9        29.86R
MONTICELLO*    CLEAR     38  33  81 N5        29.84S
LOGANSPORT*    PTCLDY    36  32  87 N6        29.85R
ROCHESTER*     CLEAR     37  32  81 N5        29.86R
WARSAW*        CLEAR     36  30  80 NE7       29.86R
ANGOLA*        CLEAR     36  27  69 N5        29.85R
FORT WAYNE     CLEAR     37  30  75 N8        29.84R
HUNTINGTON*    CLEAR     37  30  77 N5        29.83R
PERU/GRISSOM   PTCLDY    37  30  77 NE7       29.83R
MARION*        PTCLDY    38  31  75 NE8       29.83R

$$
INZ028>050-261000-
CENTRAL INDIANA

CITY           SKY/WX    TMP DP  RH WIND       PRES   REMARKS
LAFAYETTE      PTCLDY    40  32  73 NE8       29.84R
KOKOMO*        PTCLDY    37  30  75 NE10      29.84R
MUNCIE*        CLOUDY    40  32  73 NE10      29.80R
INDIANAPOLIS   CLOUDY    43  30  60 NE13      29.78R

$$
MIZ043>046-050>051-056>058-064>065-071>073-077>080-261000-
SOUTHWEST LOWER MICHIGAN

CITY           SKY/WX    TMP DP  RH WIND       PRES   REMARKS
BATTLE CREEK   CLEAR     34  25  69 NE5       29.89R WCI  30
BENTON HARBOR  CLEAR     36  26  67 NE5       29.90R
COLDWATER*     CLEAR     34  27  74 N6        29.86R WCI  29
HILLSDALE*     CLEAR     36  25  63 N5        29.85R
HOLLAND        CLEAR     37  26  64 N3        29.93R
GRAND RAPIDS   CLEAR     35  24  64 CALM      29.91R
KALAMAZOO      CLEAR     32  24  72 N6        29.89R WCI  26
STURGIS*       CLEAR     36  27  69 CALM      29.86R
THREE RIVERS*  FAIR      35  28  74 N3        29.88R

$$
OHZ001>008-015>018-024>025-261000-
NORTHWEST OHIO

CITY           SKY/WX    TMP DP  RH WIND       PRES   REMARKS
WAUSEON*       FAIR      36  27  69 N9        29.84R
DEFIANCE       CLEAR     36  27  69 N8        29.84R
FINDLAY        CLEAR     39  32  76 N12       29.79R
TOLEDO EXPRESS CLEAR     35  26  69 N6        29.83R WCI  30
TOLEDO METCALF CLEAR     41  30  65 N12       29.83R
LIMA           PTCLDY    38  31  76 N13       29.78S

$$
AND FOR LAKE MICHIGAN COASTAL AND OPEN LAKE BUOY OBSERVATIONS

STATION/POSITION TEMP    WIND        PRES    VSBY  WAVE
                 AIR SEA DIR/SP/G                  HT/PER
                 (F)     (DEG/KT/KT) (MB)    (MI)  (FT/S)
CALUMET HARBOR    43      20/ 10/ 15   N/A
MICHIGAN CITY     43      20/ 18/ 20   N/A
BURNS HARBOR      44      50/ 17/ 20 1012.5R
SAINT JOSEPH      38      10/  3/  4 1012.9R
MICHIGAN CITY     42 45   50/ 12/ 16   N/A           3/ 5

$$
&&



USA.gov is the U.S. government's official web portal to all federal, state and local government web resources and services.